Location: Hamburg
(53.5500°N, 10.0000°E)
Time: 09:45:52
(UTC+02:00)

A-11 Canister half - All Passes

Search period start: 25 October 2014 00:00
Search period end: 03 November 2014 23:00
Orbit: 1525 x 1685 km, 47.3° (Epoch: 23 October)

Date Brightness Start Highest point End Pass type
(mag) Time Alt. Az. Time Alt. Az. Time Alt. Az.
25 Oct - 09:40:32 10° S 09:46:17 18° SE 09:51:57 10° E daylight
25 Oct - 11:40:39 10° SW 11:49:20 42° SSE 11:57:51 10° E daylight
25 Oct - 13:44:10 10° WSW 13:53:20 60° S 14:02:22 10° E daylight
25 Oct - 15:48:38 10° W 15:57:28 50° SSW 16:06:17 10° SE daylight
25 Oct - 17:53:49 10° W 18:00:51 25° SW 18:07:54 10° S daylight
26 Oct - 08:19:22 10° SSE 08:24:52 17° SE 08:30:16 10° E daylight
26 Oct - 10:19:13 10° SW 10:27:51 41° SSE 10:36:20 10° E daylight
26 Oct - 12:22:40 10° WSW 12:31:50 60° S 12:40:53 10° E daylight
26 Oct - 14:27:07 10° W 14:36:00 51° SSW 14:44:50 10° SE daylight
26 Oct - 16:32:14 10° W 16:39:25 26° SW 16:46:37 10° S daylight
27 Oct - 07:58:14 10° SSE 08:03:27 16° SE 08:08:35 10° E daylight
27 Oct - 09:57:47 10° SW 10:06:23 40° SSE 10:14:49 10° E daylight
27 Oct - 12:01:09 10° WSW 12:10:21 59° S 12:19:23 10° E daylight
27 Oct - 14:05:36 10° W 14:14:31 52° SSW 14:23:22 10° SE daylight
27 Oct - 16:10:40 10° W 16:17:59 27° SW 16:25:19 10° SSE daylight
28 Oct - 07:37:08 10° SSE 07:42:02 15° SE 07:46:51 10° E daylight
28 Oct - 09:36:21 10° SSW 09:44:55 39° SSE 09:53:19 10° E daylight
28 Oct - 11:39:39 10° WSW 11:48:51 59° S 11:57:53 10° E daylight
28 Oct - 13:44:05 10° W 13:53:02 53° SSW 14:01:55 10° SE daylight
28 Oct - 15:49:06 10° W 15:56:33 28° SW 16:04:00 10° SSE daylight
29 Oct - 07:16:04 10° SSE 07:20:37 14° SE 07:25:06 10° E daylight
29 Oct - 09:14:56 10° SSW 09:23:28 38° SSE 09:31:48 10° E daylight
29 Oct - 11:18:09 10° WSW 11:27:22 59° S 11:36:24 10° E daylight
29 Oct - 13:22:34 10° W 13:31:34 54° SSW 13:40:27 10° ESE daylight
29 Oct - 15:27:32 10° W 15:35:06 29° SW 15:42:40 10° SSE daylight
30 Oct - 06:55:03 10° SSE 06:59:12 14° SE 07:03:17 10° E daylight
30 Oct - 08:53:31 10° SSW 09:02:00 37° SSE 09:10:17 10° E daylight
30 Oct - 10:56:38 10° WSW 11:05:52 58° S 11:14:54 10° E daylight
30 Oct - 13:01:02 10° W 13:10:05 55° SSW 13:19:00 10° ESE daylight
30 Oct - 15:05:58 10° W 15:13:40 30° SW 15:21:20 10° SSE daylight
31 Oct - 06:34:06 10° SSE 06:37:47 13° SE 06:41:25 10° ESE visible
31 Oct - 08:32:06 10° SSW 08:40:32 36° SSE 08:48:45 10° E daylight
31 Oct - 10:35:08 10° WSW 10:44:22 58° S 10:53:24 10° E daylight
31 Oct - 12:39:31 10° W 12:48:35 55° SSW 12:57:32 10° ESE daylight
31 Oct - 14:44:25 10° W 14:52:13 32° SW 15:00:00 10° SSE daylight
01 Nov - 06:13:15 10° SE 06:16:22 12° SE 06:19:28 10° ESE visible
01 Nov - 08:10:42 10° SSW 08:19:04 35° SE 08:27:14 10° E daylight
01 Nov - 10:13:37 10° WSW 10:22:53 57° S 10:31:55 10° E daylight
01 Nov - 12:17:59 10° W 12:27:06 56° SSW 12:36:04 10° ESE daylight
01 Nov - 14:22:51 10° W 14:30:47 33° SW 14:38:39 10° SSE daylight
02 Nov - 05:52:34 10° SE 05:54:58 11° SE 05:57:21 10° ESE visible
02 Nov - 07:49:18 10° SSW 07:57:36 34° SE 08:05:42 10° E daylight
02 Nov - 09:52:07 10° WSW 10:01:23 57° SSE 10:10:25 10° E daylight
02 Nov - 11:56:28 10° W 12:05:37 57° SSW 12:14:36 10° ESE daylight
02 Nov - 14:01:18 10° W 14:09:20 34° SW 14:17:18 10° SSE daylight
02 Nov - 16:09:59 10° WSW 16:11:52 11° WSW 16:13:45 10° SW daylight
03 Nov - 05:32:18 10° SE 05:33:34 10° ESE 05:34:49 10° ESE visible
03 Nov - 07:27:54 10° SSW 07:36:09 33° SE 07:44:10 10° E daylight
03 Nov - 09:30:37 10° WSW 09:39:53 56° SSE 09:48:55 10° E daylight
03 Nov - 11:34:56 10° W 11:44:08 57° S 11:53:08 10° ESE daylight
03 Nov - 13:39:45 10° W 13:47:53 35° SW 13:55:56 10° SSE daylight
03 Nov - 15:47:43 10° WSW 15:50:28 12° SW 15:53:14 10° SW daylight
